www.pogodaiklimat.ru

Погода и климат >> Архив погоды >> Нигер >> Zinder


ПОГОДА в Zinder

  • Прогноз погоды в Zinder
  • Монитор погоды в Zinder
  • Климат города

АРХИВ ПОГОДЫ в Zinder

Время (UTC), дата Ветер
(напр.,м/с)
 
Видим.   Явления Облачность Т
(С)
Тd
(С)
f
(%)
Тe
(С)
Тes
(С)
Комфортность P
(гПа)
Po
(гПа)
Тmin
(С)
Tmax
(С)
R
(мм)
R24
(мм)
S
(см)
18 20.06 СЗ 10 10 км 9/1 1200 м
[Cu med, cong Ac trans Ci sp]
+34.0 +19.3 42 +39 +39 очень
душно
1007.6 958.1 +36.5
21 20.06 З 8 10 км 8/0
[Ac trans Ci sp]
+32.0 +19.8 49 +38 +38 очень
душно
1009.2 959.8
03 21.06 З 14 10 км 6/0
[Ac trans Ci sp]
+28.0 +22.0 70 +36 +36 очень
душно
1009.2 959.9
06 21.06 З 14 10 км 8/0
[Ac trans Ci sp]
+27.7 +21.8 70 +36 +36 очень
душно
1010.4 960.9 +27.5
09 21.06 З 16 10 км 9/0
[Ac trans Cs]
+31.2 +21.2 55 +39 +39 очень
душно
1011.0 961.5
12 21.06 Ю 8 10 км 9/1 1200 м
[Cu hum Ac As Ci sp]
+34.5 +20.8 45 +42 +43 опасность
перегрева
1010.1 960.8
15 21.06 СЗ 6 6000 м в посл. час гроза {дождь} 10/4 1200 м
[Cb cap Ac As]
+26.7 +23.6 83 +36 +37 очень
душно
1011.2 961.1
18 21.06 Ю 10 10 км {гроза, дождь} 9/0
[Ac As Ci sp]
+25.0 +20.5 76 +31 +31 очень
душно
1010.5 960.2 +34.6 11
21 21.06 ЮЗ 8 10 км 9/0
[Ac As Ci sp]
+23.0 +18.7 77 +29 +29 очень
душно
1011.1 960.9
03 22.06 З 8 10 км 9/0
[Ac As Ci sp]
+24.3 +20.9 81 +30 +30 очень
душно
1009.4 958.1
06 22.06 З 6 15 км 9/0
[Ac trans Cs]
+24.0 +21.5 86 +31 +31 очень
душно
1010.0 959.4 +22.5
09 22.06 З 10 10 км 9/0
[Cs]
+28.0 +22.3 71 +37 +37 очень
душно
1011.2 960.8
12 22.06 СЗ 14 10 км 9/0
[Cs]
+32.0 +20.7 51 +39 +39 очень
душно
1009.0 959.1
15 22.06 З 8 10 км 9/0
[Cs]
+35.0 +20.1 42 +41 +42 опасность
перегрева
1005.6 956.1
18 22.06 Ю 10 10 км 9/0
[Ac trans Cs]
+32.8 +21.3 51 +41 +41 опасность
перегрева
1005.8 956.1 +35.5
21 22.06 ЮЗ 6 10 км 9/0
[Cs]
+30.0 +21.3 60 +38 +38 очень
душно
1007.7 958.0
03 23.06 штиль 0 10 км 9/0
[Cs]
+27.0 +22.7 77 +36 +36 очень
душно
1007.6 958.2
06 23.06 штиль 0 10 км 9/0
[Cs]
+27.0 +22.7 77 +36 +37 очень
душно
1008.8 959.2 +26.5
09 23.06 Ю 4 10 км 9/0
[Cs]
+31.6 +22.3 58 +41 +49 опасность
перегрева
1009.5 960.0
12 23.06 ЮВ 8 10 км 9/1 1200 м
[Cu med, cong Cs]
+35.3 +19.5 40 +41 +44 опасность
перегрева
1008.1 958.9
15 23.06 Ю 8 15 км 9/4 1200 м
[Cu med, cong Ci sp]
+36.5 +17.8 33 +40 +41 очень
душно
1006.1 956.9
18 23.06 ЮВ 8 15 км 9/1 1200 м
[Cu hum Cs]
+34.8 +17.3 35 +38 +38 очень
душно
1006.1 956.8 +37.2
21 23.06 ЮВ 8 10 км 6/0
[Ci sp]
+32.2 +18.8 45 +37 +37 очень
душно
1008.8 959.5
06 24.06 ЮВ 6 10 км 9/0
[Ac As Ci sp]
+28.0 +20.7 65 +35 +35 очень
душно
1008.4 959.0 +28.0
09 24.06 З 10 15 км 9/0
[Ac trans Cs]
+31.2 +21.0 55 +39 +39 очень
душно
1010.5 961.1
12 24.06 ЮЗ 4 15 км 9/3 1200 м
[Cu hum Cs]
+34.4 +19.9 43 +40 +49 очень
душно
1008.8 959.6
15 24.06 ЮВ 8 10 км 9/3 1200 м
[Cb cap Ac lent Ci sp]
+35.0 +18.7 38 +39 +40 очень
душно
1005.7 956.7
18 24.06 ЮВ 4 10 км 9/0
[Ac As]
+34.0 +16.9 36 +37 +37 очень
душно
1007.5 958.1 +35.5
21 24.06 С 10 10 км {дождь} 9/0
[Ac As]
+30.0 +21.3 60 +38 +38 очень
душно
1009.9 960.3
03 25.06 СЗ 6 6000 м гроза, ливневой дождь 10/3 1200 м
[Cb cap As op]
+26.5 +24.0 86 +37 +37 очень
душно
1010.5 960.9
06 25.06 С 8 10 км в посл. час гроза {дождь} 9/1 900 м
[Sc Ac As Ci sp]
+25.8 +20.0 70 +32 +32 очень
душно
1011.8 962.1 +22.6 12
09 25.06 С 6 15 км 9/0
[Cs]
+29.0 +19.6 57 +35 +40 очень
душно
1012.5 962.6
12 25.06 С 6 15 км 9/0
[Cs]
+33.5 +19.5 44 +39 +46 очень
душно
1010.3 960.6
15 25.06 С 12 10 км 9/1 1200 м
[Cu med, cong Cs]
+35.5 +17.6 35 +39 +39 очень
душно
1006.9 957.6
18 25.06 С 6 10 км 9/0
[Ac trans Cs]
+33.6 +18.0 40 +38 +38 очень
душно
1006.9 957.3 +36.0
21 25.06 С 4 10 км 9/0
[Cs]
+31.0 +20.8 55 +38 +38 очень
душно
1008.4 958.8
03 26.06 З 6 10 км 9/0
[Cs]
+28.0 +23.0 74 +37 +37 очень
душно
1008.3 959.0
06 26.06 З 8 10 км 9/0
[Cs]
+27.0 +22.7 77 +36 +36 очень
душно
1009.6 960.0 +26.7
09 26.06 СЗ 12 10 км 9/0
[Cs]
+31.0 +22.1 59 +40 +40 очень
душно
1009.9 960.4
12 26.06 СЗ 10 10 км 9/0
[Cs]
+34.5 +20.8 45 +42 +42 опасность
перегрева
1008.2 959.0
15 26.06 ЮЗ 6 10 км 9/1 1200 м
[Cb cap Cs]
+37.0 +20.0 37 +43 +45 опасность
перегрева
1006.5 957.4
18 26.06 З 6 10 км в посл. час гроза 9/1 1200 м
[Cb cap Ac trans Cs]
+34.8 +19.2 40 +40 +40 очень
душно
1006.2 956.8 +37.3
21 26.06 СЗ 4 10 км 9/0
[Ac trans Cs]
+29.7 +17.1 47 +34 +34 очень
душно
1008.5 959.0
03 27.06 З 8 10 км 9/0
[Ac trans Cs]
+29.0 +21.8 65 +37 +37 очень
душно
1006.3 957.3
06 27.06 З 10 10 км 9/0
[Cs]
+28.5 +22.4 70 +37 +37 очень
душно
1008.1 958.8 +28.1
09 27.06 З 14 15 км 9/0
[Ac trans Cs]
+32.0 +22.6 58 +42 +42 опасность
перегрева
1009.7 960.2
12 27.06 З 14 15 км 9/0
[Cs]
+36.0 +21.4 43 +44 +44 опасность
перегрева
1008.6 959.4
15 27.06 СЗ 12 10 км 9/0
[Cs]
+36.5 +19.2 36 +41 +41 опасность
перегрева
1005.0 956.1

 

Местоположение метеостанции Zinder (Нигер): широта 13.78 долгота 8.98 высота над уровнем моря 453 м.

В архиве по умолчанию представлена погода в Zinder за последнюю неделю. Архивные данные за месяц целиком и за предыдущие месяцы, начиная с января 2011 года, Вы можете получить, выбрав интересующий диапазон дат из раскрывающегося списка и нажав кнопку "Ввод!".

Внимание! Время в таблицах - всемирное. Для получения местного времени необходимо прибавить поправку, которая в Zinder равна 1 ч.

Смотрите также архив погоды в соседних городах и на ближайших метеорологических станциях:

Погода в Magaria (Нигер) (89 км)
Погода в Goure (Нигер) (144 км)
Погода в Cano (Нигерия) (199 км)
Погода в Maradi (Нигер) (208 км)
Погода в Maine-Soroa (Нигер) (330 км)
Погода в Agadez (Нигер) (371 км)
Погода в Birni-Nkonni (Нигер) (403 км)
Погода в Diffa (Нигер) (413 км)
Погода в Tahoua (Нигер) (421 км)
Погода в Nguigmi (Нигер) (450 км)

Пояснения к столбцам:

Ветер - указаны скорость ветра в м/с - средняя за 10 мин, порывы в срок и между сроками (в фигурных скобках) и направление, откуда дует ветер: С - северный, СВ - северо-восточный, В - восточный, ЮВ - юго-восточный, Ю - южный, ЮЗ - юго-западный, З - западный, СЗ - северо-западный.
Видимость - горизонтальная дальность видимости в метрах или километрах. При видимости от 1 до 10 км при отсутствии осадков обычно наблюдается дымка, при ухудшении видимости до 1 км и менее - туман. В сухую погоду видимость может ухудшаться дымом, пылью или мглою.
Явления - указаны атмосферные явления, наблюдавшиеся в срок или в последний час перед сроком; фигурными скобками обозначены явления, наблюдавшиеся между сроками (за 1-3 часа до срока); квадратными скобками обозначены град или гололедные отложения с указанием их диаметра в мм.
Облачность - указаны через наклонную черту общая и нижняя облачность в баллах и высота нижней границы облаков в метрах; квадратными скобками обозначены формы облаков: Ci - перистые, Cs - перисто-слоистые, Cc - перисто-кучевые, Ac - высококучевые, As - высокослоистые, Sc - слоисто-кучевые, Ns - слоисто-дождевые, Cu - кучевые, Cb - кучево-дождевые. Подробнее классификацию облаков см. в Атласе облаков (PDF).
T - Температура воздуха - температура, измеренная на высоте 2 м над землей.
Td - Температура точки росы - температура, при понижении до которой содержащийся в воздухе водяной пар достигнет насыщения.
f - Относительная влажность воздуха - влажноcть воздуха, измеренная на высоте 2 м над землей.
Te - Эффективная температура - температура, которую ощущает одетый по сезону человек в тени. Характеристика душности погоды. При расчете учитывается влияние влажности воздуха и скорости ветра на теплоощущения человека.
Tes - Эффективная температура на солнце - температура, которую ощущает человек, с поправкой на солнечный нагрев. Характеристика знойности погоды. Зависит от высоты солнца над горизонтом, облачности и скорости ветра. Ночью, в пасмурную погоду, а также при ветре 12 м/с и более поправка равна нулю.
P - Атмосферное давление - приведенное к уровню моря атмосферное давление.
Po - Атмосферное давление - измеренное на уровне метеостанции атмосферное давление.
Tmin - Минимальная температура - минимум температуры воздуха на высоте 2 м над землей.
Tmax - Максимальная температура - максимум температуры воздуха на высоте 2 м над землей.
R - Количество осадков - Количество выпавших осадков за период времени, мм. При наведении курсора мыши на число - период времени, за который выпало указанное количество осадков.
R24 - Количество осадков - Количество выпавших осадков за 24 часа, мм.
S - Снежный покров - Высота снежного покрова, см. При наведении курсора мыши на число - состояние снежного покрова и степень покрытия местности в баллах.